Regional Weather Roundup
Issued by NWS

Home | Current Version | Previous Version | Text Only | Print | Product List | Glossary On
Versions: 1 2 3 4 5 6 7 8 9 10 11 12 13 14 15 16 17 18 19 20 21 22 23 24 25 26 27 28 29 30 31 32 33 34 35 36 37 38 39 40 41 42 43 44 45 46 47 48 49 50
948
ASUS45 KCYS 110110
RWRWY

WYOMING REGIONAL WEATHER ROUNDUP
NATIONAL WEATHER SERVICE CHEYENNE WY
600 PM MST WED FEB 10 2016

NOTE:  "FAIR" INDICATES FEW OR NO CLOUDS BELOW 12,000 FEET
WITH NO SIGNIFICANT WEATHER AND/OR OBSTRUCTIONS TO VISIBILITY.

WYZ001-110200-
YELLOWSTONE NATIONAL PARK

CITY           SKY/WX    TMP DP  RH WIND       PRES   REMARKS
LK YELLOWSTONE   N/A     27  20  75 CALM      30.37R
W YELLOWSTONE  NOT AVBL

$$
WYZ002>013-054>058-071-098>099-110200-
NORTHERN WYOMING

CITY           SKY/WX    TMP DP  RH WIND       PRES   REMARKS
JACKSON        CLEAR     19  16  86 CALM      30.37R
CODY           FAIR      54  19  26 W14G30    30.16R
GREYBULL       FAIR      44  28  53 CALM      30.13R
WORLAND        FAIR      33  26  75 CALM      30.13F
SHERIDAN       PTCLDY    50  23  34 CALM      30.06F
BUFFALO        FAIR      50  23  34 N7        30.12R
GILLETTE       FAIR      40  25  55 NW6       30.09R
HULETT         FAIR      45  27  49 CALM      30.10R
NEWCASTLE      FAIR      43  21  42 NW8       30.08R

$$
WYZ014>020-022>026-101>103-110200-
CENTRAL WYOMING

CITY           SKY/WX    TMP DP  RH WIND       PRES   REMARKS
BIG PINEY      FAIR      35  20  54 NE3       30.32S
PINEDALE         N/A     32  23  69 CALM      30.32R
DUBOIS         FAIR      36  16  44 W6        30.28R WCI  31
LANDER         FAIR      35  21  56 SE7       30.18R WCI  29
RIVERTON       FAIR      36  18  48 NW3       30.18S
CASPER         FAIR      38  23  55 SW9       30.16R WCI  31
DOUGLAS        FAIR      38  24  57 NW9         N/A  WCI  31

$$
WYZ021-027>030-104>119-110200-
SOUTHERN WYOMING

CITY           SKY/WX    TMP DP  RH WIND       PRES   REMARKS
EVANSTON       FAIR      34  19  54 W14       30.39R WCI  25
KEMMERER       FAIR      30  19  64 CALM      30.36S
FORT BRIDGER   CLEAR     37  21  52 W16       30.38S WCI  28
ROCK SPRINGS   FAIR      38  21  50 W20       30.32R WCI  28
DIXON          FAIR      26  17  68 E5        30.36R WCI  20
RAWLINS        FAIR      33  19  56 W23G30    30.26S WCI  21
SARATOGA       FAIR      36  18  48 NW5G18    30.29R WCI  32
LARAMIE        FAIR      36  18  48 W12       30.20S WCI  28
CHEYENNE       FAIR      44  16  32 NW15      30.16R
TORRINGTON     FAIR      48  22  35 NW8       30.10R
PINE BLUFFS    FAIR      41  25  52 NW15      30.14R

$$




USA.gov is the U.S. government's official web portal to all federal, state and local government web resources and services.